Change the Weather History Date:

Wednesday, September 5, 2012

  Actual Average Record
Temperature  
Mean Temperature 83 °F -  
Max Temperature 93 °F 87 °F 96 °F (1954)
Min Temperature 75 °F 67 °F 53 °F (1974)
Cooling Degree Days 18    
Growing Degree Days 33 (Base 50)    
Moisture  
Dew Point 75 °F    
Average Humidity 79    
Maximum Humidity 94    
Minimum Humidity 57    
Precipitation  
Precipitation 0.00 in - - ()
Sea Level Pressure  
Sea Level Pressure 29.87 in    
Wind  
Wind Speed 5 mph (WNW)    
Max Wind Speed 10 mph    
Max Gust Speed -    
Visibility 10 miles    
Events Thunderstorm    
Averages and records for this station are not official NWS values.
T = Trace of Precipitation, MM = Missing Value Source: NWS Daily Summary

Daily Weather History Graph

Daily Weather History Graph

Search for Another Location

Airport or City:

Trip Planner

Search our weather history database for the weather conditions in past years. The results will help you decide how hot, cold, wet, or windy it might be!

Date:

Astronomy

Sep. 05, 2012 Rise Set
Actual Time 6:40 AM CDT 7:19 PM CDT
Civil Twilight 6:16 AM CDT 7:44 PM CDT
Nautical Twilight 5:47 AM CDT 8:12 PM CDT
Astronomical Twilight 5:17 AM CDT 8:42 PM CDT
Moon 10:14 PM CDT (9/5) 11:20 AM CDT (9/5)
Length of Visible Light 13h 28m
Length of Day
12h 39m
Waning Gibbous, 76% of the Moon is Illuminated
Sep 5
Waning Gibbous
Sep 8
Last Quarter
Sep 15
New
Sep 22
First Quarter
Sep 29
Full

Hourly Weather History & Observations

Time (CDT) Temp. Heat Index Dew Point Humidity Pressure Visibility Wind Dir Wind Speed Gust Speed Precip Events Conditions
12:53 AM 78.1 °F - 75.0 °F 90% 29.87 in 9.0 mi Calm Calm - N/A   Clear
1:53 AM 77.0 °F - 73.9 °F 90% 29.85 in 9.0 mi West 6.9 mph - N/A   Clear
2:53 AM 77.0 °F - 75.0 °F 94% 29.85 in 10.0 mi West 6.9 mph - N/A   Clear
3:53 AM 75.9 °F - 73.9 °F 94% 29.85 in 9.0 mi West 5.8 mph - N/A   Clear
4:53 AM 75.9 °F - 73.9 °F 94% 29.86 in 10.0 mi WNW 6.9 mph - N/A   Clear
5:53 AM 75.9 °F - 73.9 °F 94% 29.87 in 10.0 mi WNW 8.1 mph - N/A   Clear
6:53 AM 75.9 °F - 73.9 °F 94% 29.90 in 8.0 mi West 3.5 mph - N/A   Partly Cloudy
7:53 AM 77.0 °F - 73.9 °F 90% 29.89 in 8.0 mi WNW 6.9 mph - N/A   Partly Cloudy
8:03 AM 77.0 °F - 75.2 °F 94% 29.90 in 8.0 mi WNW 5.8 mph - N/A   Scattered Clouds
8:53 AM 80.1 °F 85.1 °F 75.0 °F 85% 29.90 in 10.0 mi WNW 5.8 mph - N/A   Clear
9:53 AM 82.9 °F 90.2 °F 75.0 °F 77% 29.91 in 10.0 mi NW 9.2 mph - N/A   Partly Cloudy
10:53 AM 86.0 °F 95.1 °F 75.0 °F 70% 29.91 in 10.0 mi WNW 10.4 mph - N/A   Partly Cloudy
11:39 AM 87.8 °F 97.6 °F 75.2 °F 66% 29.93 in 10.0 mi NW 9.2 mph - N/A   Mostly Cloudy
11:53 AM 87.1 °F 96.3 °F 75.0 °F 67% 29.91 in 10.0 mi NW 9.2 mph - N/A   Mostly Cloudy
12:03 PM 87.8 °F 97.6 °F 75.2 °F 66% 29.92 in 10.0 mi NW 6.9 mph - N/A   Partly Cloudy
12:53 PM 90.0 °F 100.2 °F 75.0 °F 61% 29.88 in 10.0 mi NNW 6.9 mph - N/A   Mostly Cloudy
1:53 PM 90.0 °F 100.2 °F 75.0 °F 61% 29.86 in 10.0 mi WNW 3.5 mph - N/A   Partly Cloudy
2:53 PM 91.0 °F 100.4 °F 73.9 °F 57% 29.85 in 10.0 mi Calm Calm - N/A   Mostly Cloudy
3:53 PM 91.9 °F 103.2 °F 75.0 °F 58% 29.84 in 10.0 mi North 6.9 mph - N/A   Mostly Cloudy
5:53 PM 91.0 °F 102.9 °F 75.9 °F 61% 29.83 in 10.0 mi West 3.5 mph - N/A   Partly Cloudy
6:53 PM 88.0 °F 101.3 °F 78.1 °F 72% 29.83 in 10.0 mi WNW 3.5 mph - N/A   Scattered Clouds
7:53 PM 84.9 °F 96.6 °F 78.1 °F 80% 29.84 in 10.0 mi West 3.5 mph - N/A Thunderstorm Clear
8:53 PM 82.9 °F 91.8 °F 77.0 °F 82% 29.86 in 10.0 mi Variable 5.8 mph - N/A Thunderstorm Thunderstorm
9:03 PM 84.2 °F 90.9 °F 73.4 °F 70% 29.87 in 10.0 mi Calm Calm - N/A   Mostly Cloudy
9:53 PM 80.1 °F 85.1 °F 75.0 °F 85% 29.86 in 10.0 mi Calm Calm - N/A   Mostly Cloudy
10:53 PM 80.1 °F 85.8 °F 77.0 °F 90% 29.86 in 9.0 mi Calm Calm - N/A   Clear
11:53 PM 80.1 °F 85.4 °F 75.9 °F 87% 29.86 in 9.0 mi Calm Calm - N/A   Clear